Terug naar catalogus

CELESTIS 17/SHERPA-FX1

ActiefWetenschapSSO
NORAD 47486·PAYLOAD·🇺🇸 United States

Gelanceerd Jan 24, 2021 vanaf Cape Canaveral Space Force Station

Loading…

Volgende Passages (komende 24 uur)

TLE

VersSource: Space-Track

Epoch: Sep 14, 2026, 01:44 UTC

1 47486U 21006CB  26257.07242513  .00004601  00000-0  14677-3 0  9993
2 47486  97.2175 296.0203 0004941 228.4601 131.6218 15.32985982312915

Volg CELESTIS 17/SHERPA-FX1 in realtime met AllMySat

Download on the App Store